Regional Weather Roundup
Issued by NWS Little Rock, AR

Home | Current Version | Previous Version | Graphics & Text | Print | Product List | Glossary On
Versions: 1 2 3 4 5 6 7 8 9 10 11 12 13 14 15 16 17 18 19 20 21 22 23 24 25 26 27 28 29 30 31
000
ASUS44 KLZK 152005
RWRLZK

WEATHER ROUNDUP FOR ARKANSAS
NATIONAL WEATHER SERVICE LITTLE ROCK AR
200 PM CST MON JAN 15 2018

NOTE: "FAIR" INDICATES FEW OR NO CLOUDS BELOW 12,000 FEET WITH NO
SIGNIFICANT WEATHER AND/OR OBSTRUCTIONS TO VISIBILITY.

ARZ001-003-010-029-152100-
NORTHWEST ARKANSAS

CITY           SKY/WX    TMP DP  RH WIND       PRES   REMARKS
FAYETTEVILLE   CLOUDY    25  19  78 NW15      30.42R WCI  13
FORT SMITH     CLOUDY    37  24  59 N14       30.40R
HARRISON       CLOUDY    25  21  85 NW12G18   30.38R WCI  14
BENTONVILLE    FLURRIES  20  15  81 N8        30.45S WCI  10
ROGERS         CLOUDY    19  15  84 N7        30.43R WCI  10
SILOAM SPGS    CLOUDY    20  14  77 N15       30.45R WCI   6
HIGHFILL       CLOUDY    20  15  81 N15       30.43S WCI   6
SPRINGDALE     CLOUDY    23  18  80 N9        30.43S WCI  13
$$

ARZ004-005-016-152100-
NORTH CENTRAL ARKANSAS

CITY           SKY/WX    TMP DP  RH WIND       PRES   REMARKS
BATESVILLE     CLOUDY    37  27  67 NW6       30.38R
FLIPPIN        LGT SNOW  29  24  82 NW12      30.41R WCI  19
MTN HOME       LGT SNOW  27  25  92 N9        30.38R VSB 3/4 WCI  18
$$

ARZ040-041-152100-
WEST CENTRAL ARKANSAS

CITY           SKY/WX    TMP DP  RH WIND       PRES   REMARKS
MENA           CLOUDY    50  28  43 N10       30.31R
MOUNT IDA      CLOUDY    52  28  39 VRB7      30.27S
$$

ARZ009-017-025-026-028-152100-
NORTHEAST ARKANSAS

CITY           SKY/WX    TMP DP  RH WIND       PRES   REMARKS
JONESBORO      CLOUDY    37  28  70 NW6       30.37F
NEWPORT        FAIR      39  28  64 NW10      30.38S
WALNUT RIDGE   LGT SNOW  33  29  85 NW5       30.39S FOG     WCI  29
BLYTHEVILLE    CLOUDY    34  33  96 NW8       30.38R WCI  27
$$

ARZ022-023-033-042-044-152100-
CENTRAL ARKANSAS

CITY           SKY/WX    TMP DP  RH WIND       PRES   REMARKS
LITTLE ROCK    CLOUDY    47  26  44 NE5       30.34S
N LITTLE ROCK    N/A     45  27  50 N8        30.38S
JACKSONVILLE   MOSUNNY   48  27  44 N6        30.33S HAZE
SEARCY         FAIR      46  31  55 N13       30.36F
HOT SPRINGS    MOSUNNY   50  31  48 S3        30.31F
RUSSELLVILLE   PTSUNNY   46  26  45 NE6       30.34F
CLINTON        CLOUDY    39  28  65 VRB6      30.37S
$$

ARZ036-152100-
EAST ARKANSAS

CITY           SKY/WX    TMP DP  RH WIND       PRES   REMARKS
WEST MEMPHIS   PTSUNNY   39  30  70 VRB3      30.36S
$$

ARZ050-053-066-070-073-152100-
SOUTHWEST ARKANSAS

CITY           SKY/WX    TMP DP  RH WIND       PRES   REMARKS
ARKADELPHIA    CLOUDY    42  32  67 SE3       30.35S
CAMDEN         CLOUDY    57  30  35 VRB5      30.31F
TEXARKANA      CLOUDY    50  36  58 N8        30.30F
EL DORADO      CLOUDY    55  41  59 SW7       30.31F
DE QUEEN       PTSUNNY   45  33  63 SW5       30.31F
$$

ARZ056-057-069-152100-
SOUTHEAST ARKANSAS

CITY           SKY/WX    TMP DP  RH WIND       PRES   REMARKS
PINE BLUFF     CLOUDY    47  30  51 NW7       30.34S
STUTTGART      CLOUDY    41  29  62 N6        30.36R
MONTICELLO     PTSUNNY   55  33  43 W6        30.32F

$$






USA.gov is the U.S. government's official web portal to all federal, state and local government web resources and services.